Tracking 18980 objects as of 18-Feb-2018
HD Live streaming from Space Station
objects crossing your sky now

FENGYUN 1C DEB

Track FENGYUN 1C DEB now!
10-day predictions


NORAD ID: 30050
Int'l Code: 1999-025PB
Perigee: 840.4 km
Apogee: 1,103.4 km
Inclination: 96.8 °
Period: 104.4 minutes
Semi major axis: 7342 km
RCS: 0.035 m2 (small)
Launch date: May 10, 1999
Source: People's Republic of China (PRC)
Launch site: Taiyaun Space Center, China (TSC)

Note: This is SATELLITE DEBRIS
aabbcc
Your satellite tracking list
Your tracking list is empty




NASA's NSSDC Master Catalog

Two Line Element Set (TLE):
1 30050U 99025PB  18048.90618446  .00000214  00000-0  20520-3 0  9991
2 30050  96.8128  39.7347 0179038 207.5358 215.2693 13.79752042558034
Source of the keplerian elements: AFSPC